Weather in Pershotravenka

Ukraine / Dnipropetrovsk Region     48°46′55″N   34°48′22″E
temp.,
°C
wind,
m/s
gust,
m/s
humid.,
%
clouds,
%
prec.,
mm/h
press.,
hPa
HPBL,
m
18 may, tue
tue1800:00+16sw3389100 0.0 100548
03:00+15ssw3590100 0.1 1005104
06:00+14s3691100 0.2 1005213
09:00+16ssw4681100 0.2 1006457
12:00+21s566024 0.0 10051412
15:00+21s7960100 1.3 10041815
18:00+18s7117280 0.5 10041019
21:00+15sse498592 0.5 1004266
19 may, wed
wed1900:00+14s4987100 0.0 1004296
03:00+13s499292 0.1 1004295
06:00+12sse4892100 0.0 1004370
09:00+17s56708 0.1 1004894
12:00+20s685280 0.7 10041964
15:00+19s7754100 0.8 10041791
18:00+17ssw556991 0.2 1004882
21:00+13s118938 0.4 100512
20 may, thu
thu2000:00+12sw479519 0.3 1005192
03:00+13wsw61090100 0.4 1006575
06:00+12wsw5989100 0.1 1007583
09:00+14sw698299 0.1 1009716
12:00+19wsw7115421 0.0 10101795
15:00+19wsw585897 0.1 1010906
18:00+17sw3769100 0.1 1011312
21:00+15nw3377100 0.1 101260
21 may, fri
fri2100:00+13n3684100 0.3 1013187
03:00+11nne5108977 0.4 1014296
06:00+11ne61282100 0.0 1014343
09:00+14ene71269100 0.0 1013457
12:00+17ene61066100 0.0 1013702
15:00+19ene6964100 0.0 1012873
18:00+20ne4873100 0.3 1011630
21:00+15nne5119198 1.7 1012280
22 may, sat
sat2200:00+14nne4995100 0.1 1011181
03:00+13n4697100 0.1 1011126
06:00+13n4895100 0.0 1011212
09:00+18n578074 0.0 1010458
12:00+24nne556438 0.0 1010925
15:00+26nne4458100 0.0 10101480
18:00+25nne4667100 0.0 1010534
21:00+20n46882 0.0 101199